NOAA 20 (43013 NORAD) Tracking and Keplerian Element Data

This shows tracking and keplerian element data for the satellite.

Feedback or suggestion? Click here.




ElementValue
Catalog43013
NameNOAA 20
Epoch Orbit9498
Epoch Day261.86156306
Epoch Year2019
RAAN198.6362
Inclination98.7246
Eccentricity0.0001385
Argument of Perigee73.0911
Mean Anonmoly287.0417
Mean Motion14.19543328
Decay Rate6E-08
L11 43013U 17073A 19261.86156306 .00000006 00000-0 23681-4 0 9993
L22 43013 98.7246 198.6362 0001385 73.0911 287.0417 14.19543328 94981

Live tracking and technical data element details for NOAA 20 (NORAD 43013). NOAA 20 can be tracked NOW for your location showing map with azimuth and elevation plus other details from your city location.

Track the satellite on the map from your city or location and see movement details for azimuth, elevation, latitude, longitude, range, height, and movement on the map or in text.







IsCatalogInMostPopularTable: catalog: 43013, numindb: 423
Update: records affected: 1



GetName: 43013 NOAA 20

Hit Count: updated at: Thu, 19 Sep 2019 16:35:57 GMT